Regional Weather Roundup
Issued by NWS Portland, ME

Current Version | Previous Version | Text Only | Print | Product List | Glossary Off
Versions: 1 2 3 4 5 6 7 8 9 10 11 12 13 14 15 16 17 18 19 20 21 22 23 24 25 26 27 28 29 30 31 32 33 34 35 36 37 38 39 40 41 42 43 44 45 46 47 48 49 50
000 ASUS41 KGYX 170410 RWRGYX WEATHER ROUNDUP FOR MAINE AND NEW HAMPSHIRE NATIONAL WEATHER SERVICE GRAY ME 1200 AM EDT THU AUG 17 2017 MEZ002-005-006-010-012-015-018-020-021-024-026-027-029-170500- MAINE CITY SKY/WX TMP DP RH WIND PRES REMARKS PORTLAND CLEAR 59 45 59 NW5 30.00S SANFORD CLEAR 46 44 93 W3 30.02R BAR HARBOR CLEAR 59 47 64 NW5 29.96S WISCASSET CLEAR 54 47 77 CALM 30.00F ROCKLAND CLEAR 55 48 77 W5 29.98S FRYEBURG CLEAR 49 48 97 CALM 30.02S LEWISTONAUBURN CLEAR 60 47 61 NW6 30.01S AUGUSTA CLEAR 61 44 53 CALM 30.00S WATERVILLE CLEAR 58 46 64 W5 29.96S BANGOR CLEAR 58 46 64 W7 29.97S GREENVILLE N/A 54 46 74 NW6 29.95S MILLINOCKET CLEAR 55 46 71 NW3 29.94F HOULTON CLEAR 52 45 77 W7 29.89S PRESQUE ISLE CLEAR 51 43 74 W3 29.89S FRENCHVILLE CLEAR 48 40 73 W10 29.84F CARIBOU CLEAR 51 43 74 W7 29.86F $$ NHZ002-005-008-009-011-012-014-170500- NEW HAMPSHIRE CITY SKY/WX TMP DP RH WIND PRES REMARKS PORTSMOUTH CLEAR 61 48 62 W7 30.00S ROCHESTER CLEAR 55 47 74 VRB5 30.01S NASHUA CLEAR 61 55 81 CALM 30.04R MANCHESTER CLEAR 64 45 49 N7 30.02R CONCORD CLEAR 53 49 86 CALM 30.04R LACONIA CLEAR 54 49 83 CALM 30.04S PLYMOUTH FAIR 50 48 95 CALM 30.04S BERLIN CLEAR 46 43 89 CALM 30.03F WHITEFIELD CLEAR 47 43 86 CALM 30.05S JAFFREY CLEAR 62 51 67 VRB3 30.06S KEENE N/A N/A N/A N/A MISG N/A LEBANON CLEAR 52 50 93 CALM 30.05S MT WASHINGTON FOG 37 37 100 NW46G55 N/A VSB 0 $$ VTZ005-007-008-170500- VERMONT CITY SKY/WX TMP DP RH WIND PRES REMARKS ST JOHNSBURY N/A 52 51 97 MISG 30.03S MONTPELIER CLEAR 50 48 93 S3 30.09S BURLINGTON CLEAR 57 52 83 SE3 30.05S $$ MAZ007-012-024-CTZ003-RIZ002-NYZ038-NYZ072-170500- SOUTHERN NEW ENGLAND AND NY CITY SKY/WX TMP DP RH WIND PRES REMARKS BOSTON PTCLDY 71 45 39 NW8 30.02R WORCESTER CLEAR 67 51 56 N5 30.05S NANTUCKET CLOUDY 67 66 97 SE3 30.00S PROVIDENCE PTCLDY 70 57 63 N6 30.02R HARTFORD PTCLDY 67 57 70 N7 30.03R ALBANY CLEAR 63 56 78 N7 30.06S NEW YORK CITY PTCLDY 78 67 68 NW9 30.00S $$ ANZ081-ANZ082-ANZ150-NHZ014-MEZ023>029-170500- COASTAL MARINE OBSERVATIONS STATION/POSITION TIME TEMP WIND PRES WAVE AIR SEA DIR/SP/G HT/PER (UTC) (F) (DEG/KT/KT) (MB) (FT/S) MOUNT DESERT ROC 0400 62 1014.1F MATINICUS ROCK 0300 63 320/ 12/ 12 1014.7R ISLE OF SHOALS 0300 66 340/ 12/ 12 1015.6R CASHES LEDGE BUO 0350 67 68 1014.9R 6/11 GEORGES BANK BUO 0250 64 63 1013.4 9/12 $$ .............KEY.............. WCI - WIND CHILL TC - TEMPERATURE IN CELSIUS VSB - VISIBILITY IN MILES HX - HEAT INDEX FAIR- INDICATES FEW OR NO CLOUDS BELOW 12,000 FT, WITH NO SIGNIFICANT WEATHER AND/OR OBSTRUCTIONS TO VISIBILITY.

USA.gov is the U.S. government's official web portal to all federal, state and local government web resources and services.